Regional Weather Roundup
Issued by NWS

Home | Current Version | Previous Version | Graphics & Text | Print | Product List | Glossary Off
Versions: 1 2 3 4 5 6 7 8 9 10 11 12 13 14 15 16 17 18 19 20 21 22 23 24 25 26 27 28 29 30 31 32 33 34 35 36 37 38 39 40 41 42 43 44 45 46 47 48 49 50

000
ASUS43 KTOP 190259
RWRKS

WEATHER ROUNDUP FOR KANSAS
NATIONAL WEATHER SERVICE GOODLAND KS
900 PM CST SUN FEB 18 2018

NOTE:  "FAIR" INDICATES FEW OR NO CLOUDS BELOW 12,000 FEET WITH NO
SIGNIFICANT WEATHER AND/OR OBSTRUCTIONS TO VISIBILITY.

KSZ001>006-013>018-027>032-041>047-190400-
NORTHWEST KANSAS

CITY           SKY/WX    TMP DP  RH WIND       PRES   REMARKS
GOODLAND       MOCLDY    55  15  20 SW15      29.40S
HAYS           CLOUDY    59  45  59 S21G28    29.45R
HILL CITY      PTCLDY    48  28  46 E6        29.43R
RUSSELL        CLOUDY    58  49  72 S23G36    29.46S
$$

KSZ061>065-074>080-084>089-190400-
SOUTHWEST KANSAS

CITY           SKY/WX    TMP DP  RH WIND       PRES   REMARKS
DODGE CITY     CLOUDY    67  34  29 S26G37    29.49S
GARDEN CITY    CLOUDY    61  23  23 S22       29.46S
GREAT BEND     PTCLDY    56  48  74 S31G38    29.49S
LIBERAL        CLOUDY    64  38  38 S22G30    29.54S
$$

KSZ066>073-081>083-090>101-190400-
SOUTHEAST KANSAS

CITY           SKY/WX    TMP DP  RH WIND       PRES   REMARKS
CHANUTE        CLOUDY    52  48  86 S22G30    29.75S
COFFEYVILLE    CLOUDY    52  49  89 S21G30    29.77F
HUTCHINSON     CLEAR     52  49  89 S22G35    29.58F
MEDICINE LODGE   N/A     53  49  86 SE14G25   29.60S
NEWTON         CLOUDY    52  48  86 S26G36    29.61F
PARSONS        CLOUDY    52  50  93 S13G23    29.78S
WICHITA INTL   MOCLDY    53  50  89 S24G31    29.64F
WICHITA JABRA  CLOUDY    51  50  96 S23G32    29.65S
WICHITA MCCONL CLOUDY    52  49  89 S21G29    29.66
WINFIELD       CLOUDY    50  50 100 S16G23    29.71F
$$

KSZ007>012-019>026-033>040-048>060-102>105-190400-
NORTHEAST KANSAS

CITY           SKY/WX    TMP DP  RH WIND       PRES   REMARKS
CONCORDIA      CLOUDY    50  45  83 S29G37    29.50F
EMPORIA        CLOUDY    52  47  83 S30G40    29.66S
LAWRENCE       CLOUDY    54  45  71 S16G25    29.69F
MANHATTAN      CLOUDY    52  45  77 S14G22    29.59F
OLATHE IND     CLOUDY    52  45  77 S21G32    29.71F
OLATHE EXE     CLOUDY    52  44  74 S18G40    29.71F
SALINA         CLOUDY    53  47  79 S24G41    29.54F
TOPEKA BILLARD CLOUDY    54  46  74 S14G29    29.65F
TOPEKA FORBES  CLOUDY    54  46  74 S26G36    29.63F
$$




USA.gov is the U.S. government's official web portal to all federal, state and local government web resources and services.